F.r. Bigelow — WDB8153 — position and weather

sailwx.info

Track history (hours):
 
Tides and Currents Weather Stations Pressure Air Temp Water Temp Dewpoint Dewpoint Depression Visibility Wind Speed Wind Dir Waves Ship Positions

F.r. Bigelow

Owner: INGRAM BARGE COMPANY, Nashville, TN. More information available from US FCC via Universal Licensing System and Coast Guard Vessel Documentation Center.

Last reported at 2014-Oct-24 14:33 UTC. Time now 2014-Oct-25 04:18 UTC.
Position N 30°07' W 090°55'.

Length 46 m; draft 2.7 m.

Type: Tow > 200 m length. MMSI: 366953890.

Date/timePositionNaut miles runAvg speedWind from/ knotsBaromVisibWave heightAir tempDewpointWater temp
2014-Oct-24 14:33N 30°07' W 090°55'4 3.4
2014-Oct-24 13:20N 30°04' W 090°53'1 1.6
2014-Oct-24 12:33N 30°04' W 090°51'3 3.1
2014-Oct-24 11:32N 30°01' W 090°50'2 2.4
2014-Oct-24 10:33N 29°60' W 090°48'4 3.7
2014-Oct-24 09:21N 30°01' W 090°43'10 3.2
2014-Oct-24 06:10N 30°03' W 090°31'23 1.2
2014-Oct-23 10:33N 29°55' W 090°07'5 4.6
2014-Oct-23 09:33N 29°57' W 090°03'39 1.5
2014-Oct-22 06:33N 30°00' W 090°48'34 1.7
2014-Oct-21 10:26N 30°27' W 091°12'7 2.5
2014-Oct-21 07:29N 30°20' W 091°09'3 2.7
2014-Oct-21 06:24N 30°19' W 091°13'2 2.7
2014-Oct-21 05:31N 30°17' W 091°12'26 2.0
2014-Oct-20 16:30N 29°60' W 090°50'17 3.4
2014-Oct-20 11:31N 30°03' W 090°31'2 1.5
2014-Oct-20 10:14N 30°03' W 090°29'16 4.9
2014-Oct-20 07:05N 29°55' W 090°13'4 4.2
2014-Oct-20 06:11N 29°55' W 090°08'22 0.5
2014-Oct-18 12:31N 30°03' W 090°32'41 1.4
2014-Oct-17 08:04N 29°38' W 089°55'1 2.3
2014-Oct-17 07:33N 29°37' W 089°54'35 0.8
2014-Oct-15 13:17N 29°59' W 090°25'0 0.3
2014-Oct-15 12:33N 29°59' W 090°25'1 0.8
2014-Oct-15 11:32N 29°59' W 090°24'4 3.8
2014-Oct-15 10:31N 29°56' W 090°20'5 4.2
2014-Oct-15 09:15N 29°58' W 090°15'3 4.2
2014-Oct-15 08:28N 29°55' W 090°13'4 1.9
2014-Oct-15 06:29N 29°56' W 090°08'  
Track history (hours):
 
Tides and Currents Weather Stations Pressure Air Temp Water Temp Dewpoint Dewpoint Depression Visibility Wind Speed Wind Dir Waves Ship Positions

F.r. Bigelow

Owner: INGRAM BARGE COMPANY, Nashville, TN. More information available from US FCC via Universal Licensing System and Coast Guard Vessel Documentation Center.

Last reported at 2014-Oct-24 14:33 UTC. Time now 2014-Oct-25 04:18 UTC.
Position N 30°07' W 090°55'.

Length 46 m; draft 2.7 m.

Type: Tow > 200 m length. MMSI: 366953890.

Date/timePositionNaut miles runAvg speedWind from/ knotsBaromVisibWave heightAir tempDewpointWater temp
2014-Oct-24 14:33N 30°07' W 090°55'4 3.4
2014-Oct-24 13:20N 30°04' W 090°53'1 1.6
2014-Oct-24 12:33N 30°04' W 090°51'3 3.1
2014-Oct-24 11:32N 30°01' W 090°50'2 2.4
2014-Oct-24 10:33N 29°60' W 090°48'4 3.7
2014-Oct-24 09:21N 30°01' W 090°43'10 3.2
2014-Oct-24 06:10N 30°03' W 090°31'23 1.2
2014-Oct-23 10:33N 29°55' W 090°07'5 4.6
2014-Oct-23 09:33N 29°57' W 090°03'39 1.5
2014-Oct-22 06:33N 30°00' W 090°48'34 1.7
2014-Oct-21 10:26N 30°27' W 091°12'7 2.5
2014-Oct-21 07:29N 30°20' W 091°09'3 2.7
2014-Oct-21 06:24N 30°19' W 091°13'2 2.7
2014-Oct-21 05:31N 30°17' W 091°12'26 2.0
2014-Oct-20 16:30N 29°60' W 090°50'17 3.4
2014-Oct-20 11:31N 30°03' W 090°31'2 1.5
2014-Oct-20 10:14N 30°03' W 090°29'16 4.9
2014-Oct-20 07:05N 29°55' W 090°13'4 4.2
2014-Oct-20 06:11N 29°55' W 090°08'22 0.5
2014-Oct-18 12:31N 30°03' W 090°32'41 1.4
2014-Oct-17 08:04N 29°38' W 089°55'1 2.3
2014-Oct-17 07:33N 29°37' W 089°54'35 0.8
2014-Oct-15 13:17N 29°59' W 090°25'0 0.3
2014-Oct-15 12:33N 29°59' W 090°25'1 0.8
2014-Oct-15 11:32N 29°59' W 090°24'4 3.8
2014-Oct-15 10:31N 29°56' W 090°20'5 4.2
2014-Oct-15 09:15N 29°58' W 090°15'3 4.2
2014-Oct-15 08:28N 29°55' W 090°13'4 1.9
2014-Oct-15 06:29N 29°56' W 090°08'  

Dump ship's entire track history